Tracking 18032 objects as of 27-March-2017
HD Live streaming from Space Station
objects crossing your sky now

CHINASAT 2C (ZX 2C)

Track CHINASAT 2C (ZX 2C) now!
CHINASAT 2C (ZX 2C) is classified as:


NORAD ID: 41021
Int'l Code: 2015-063A
Perigee: 35,779.3 km
Apogee: 35,807.1 km
Inclination: 0.0 °
Period: 1,436.1 minutes
Semi major axis: 42164 km
RCS: Unknown
Launch date: November 3, 2015
Source: People's Republic of China (PRC)
Launch site: Xichang Space Center, China (XSC)

CHINASAT 2C (ZX 2C) is a Chinese geostationary satellite, believed to be a military communications spacecraft.
Your satellite tracking list
Your tracking list is empty





NASA's NSSDC Master Catalog

Two Line Element Set (TLE):
1 41021U 15063A   17084.80449905 -.00000338 +00000-0 +00000-0 0  9997
2 41021 000.0316 125.7408 0003289 265.1204 185.6225 01.00273757005218
Source of the keplerian elements: AFSPC